Simultaneous Nadir Overpasses (SNOs) Predictions

Prediction of SNOs between METOP-B and TERRA Satellite Orbit:

Table of predicted SNOs for the next 14.0 days since TLE Epoch: 1/12/2019
Index Date (METOP-B) Time (METOP-B) Lat,Lon (METOP-B) SZA (METOP-B ) Date (TERRA) Time (TERRA) Lat,Lon (TERRA) SZA (TERRA ) Distance(km) Time Diff (sec)
1 01/13/2019 00:30:01 -81.28, 39.29 74.80 01/13/2019 00:30:08 -81.27, 39.25 74.81 1.21 7
2 01/13/2019 01:20:41 81.28,-153.16 105.23 01/13/2019 01:19:34 81.28,-152.96 105.22 3.35 67
3 01/15/2019 19:13:45 81.28, -61.84 104.67 01/15/2019 19:14:56 81.28, -61.76 104.71 1.43 71
4 01/15/2019 20:04:24 -81.28, 105.96 75.29 01/15/2019 20:04:22 -81.28, 105.78 75.31 3.02 2
5 01/18/2019 14:48:09 81.27, 4.39 104.08 01/18/2019 14:49:11 81.27, 4.47 104.11 1.39 62
6 01/18/2019 15:38:49 -81.28, 172.22 75.87 01/18/2019 15:38:37 -81.29, 172.41 75.86 3.30 12
7 01/21/2019 10:22:33 81.28, 70.99 103.49 01/21/2019 10:23:26 81.29, 71.16 103.53 2.98 53
8 01/21/2019 11:13:13 -81.29,-121.14 76.47 01/21/2019 11:12:53 -81.28,-121.25 76.49 1.77 20
9 01/24/2019 05:56:57 81.28, 137.59 102.84 01/24/2019 05:57:42 81.28, 137.58 102.86 0.52 45




NCC Satellite Simultaneous Nadir Overpasses (SNOs) Prediction Service
